Weather History for Pendleton, OR

Change the Weather History Date:

Tuesday, March 11, 2014

  Actual Average Record
Temperature  
Mean Temperature 45 °F 44 °F  
Max Temperature 55 °F 54 °F 72 °F (2007)
Min Temperature 34 °F 34 °F 16 °F (1950)
Degree Days  
Heating Degree Days 20 21  
Month to date heating degree days 219 246  
Since 1 July heating degree days 4484 4145  
Cooling Degree Days 0 0  
Month to date cooling degree days 0 0  
Year to date cooling degree days 0 0  
Moisture  
Dew Point 32 °F    
Average Humidity 60    
Maximum Humidity 82    
Minimum Humidity 38    
Precipitation  
Precipitation 0.00 in 0.04 in 0.50 in (1939)
Month to date precipitation 0.98 0.49  
Year to date precipitation 3.34 3.03  
Snow  
Snow 0.00 in 0.10 in 2.20 in (1967)
Month to date snowfall 1.0 0.5  
Year to date snowfall 15.2 7.5  
Since 1 July snowfall 21.7 15.0  
Snow Depth 0.00 in    
Sea Level Pressure  
Sea Level Pressure 30.46 in    
Wind  
Wind Speed 7 mph (WNW)    
Max Wind Speed 21 mph    
Max Gust Speed 25 mph    
Visibility 10 miles    
Events      
T = Trace of Precipitation, MM = Missing Value Source: NWS Daily Summary

Daily Weather History Graph

Daily Weather History Graph

Search for Another Location

Airport:

Trip Planner

Search our weather history database for the weather conditions in past years. The results will help you decide how hot, cold, wet, or windy it might be!

Date:

Astronomy

Mar. 11, 2014 Rise Set
Actual Time 7:15 AM PDT 6:56 PM PDT
Civil Twilight 6:45 AM PDT 7:25 PM PDT
Nautical Twilight 6:11 AM PDT 8:00 PM PDT
Astronomical Twilight 5:36 AM PDT 8:35 PM PDT
Moon 2:26 PM PDT (3/11) 4:23 AM PDT (3/11)
Length of Visible Light 12h 39m
Length of Day
11h 40m
Waxing Gibbous, 79% of the Moon is Illuminated
Mar 11
Waxing Gibbous
Mar 16
Full
Mar 23
Last Quarter
Mar 30
New
Apr 7
First Quarter

Hourly Weather History & Observations

Time (PDT) Temp. Windchill Dew Point Humidity Pressure Visibility Wind Dir Wind Speed Gust Speed Precip Events Conditions
12:53 AM 39.9 °F 30.2 °F 33.1 °F 77% 30.33 in 10.0 mi West 20.7 mph 28.8 mph N/A   Partly Cloudy
1:53 AM 39.9 °F 31.8 °F 33.1 °F 77% 30.36 in 10.0 mi WSW 15.0 mph - N/A   Partly Cloudy
2:53 AM 39.9 °F 31.8 °F 33.1 °F 77% 30.38 in 10.0 mi West 15.0 mph - N/A   Overcast
3:53 AM 39.9 °F 33.4 °F 32.0 °F 73% 30.40 in 10.0 mi WSW 10.4 mph - N/A   Overcast
4:53 AM 39.0 °F 34.0 °F 32.0 °F 76% 30.43 in 10.0 mi SW 6.9 mph - N/A   Overcast
5:53 AM 37.0 °F 33.3 °F 30.9 °F 79% 30.46 in 10.0 mi WNW 4.6 mph - N/A   Mostly Cloudy
6:53 AM 36.0 °F 33.3 °F 30.0 °F 79% 30.48 in 10.0 mi West 3.5 mph - N/A   Clear
7:53 AM 35.1 °F - 30.0 °F 82% 30.51 in 10.0 mi Calm Calm - N/A   Clear
8:53 AM 39.9 °F 37.8 °F 33.1 °F 77% 30.53 in 10.0 mi ESE 3.5 mph - N/A   Clear
9:53 AM 43.0 °F - 30.9 °F 62% 30.54 in 10.0 mi Calm Calm - N/A   Clear
10:53 AM 46.0 °F 41.9 °F 32.0 °F 58% 30.55 in 10.0 mi WNW 8.1 mph - N/A   Clear
11:53 AM 48.9 °F - 33.1 °F 54% 30.53 in 10.0 mi WNW 9.2 mph - N/A   Clear
12:53 PM 50.0 °F - 32.0 °F 50% 30.52 in 10.0 mi NW 5.8 mph - N/A   Clear
1:53 PM 51.1 °F - 30.0 °F 44% 30.51 in 10.0 mi Variable 6.9 mph - N/A   Clear
2:53 PM 53.1 °F - 30.0 °F 41% 30.48 in 10.0 mi NNW 3.5 mph - N/A   Clear
3:53 PM 52.0 °F - 28.0 °F 40% 30.47 in 10.0 mi WSW 3.5 mph - N/A   Clear
4:53 PM 54.0 °F - 30.0 °F 40% 30.45 in 10.0 mi East 3.5 mph - N/A   Clear
5:53 PM 53.1 °F - 28.9 °F 40% 30.45 in 10.0 mi NNE 4.6 mph - N/A   Clear
6:53 PM 46.9 °F - 36.0 °F 66% 30.45 in 10.0 mi NNE 5.8 mph - N/A   Clear
7:53 PM 43.0 °F 37.2 °F 35.1 °F 74% 30.46 in 10.0 mi ENE 10.4 mph - N/A   Clear
8:53 PM 41.0 °F 34.3 °F 33.1 °F 73% 30.46 in 10.0 mi ENE 11.5 mph - N/A   Clear
9:53 PM 37.9 °F 32.7 °F 30.9 °F 76% 30.46 in 10.0 mi SE 6.9 mph - N/A   Clear
10:53 PM 36.0 °F 29.6 °F 30.9 °F 82% 30.45 in 10.0 mi SE 8.1 mph - N/A   Clear
11:53 PM 37.0 °F 30.4 °F 30.0 °F 76% 30.44 in 10.0 mi SSE 9.2 mph - N/A   Clear